sat.trackr.live / text

‹ back to catalog

STARLINK-37027

NORAD 68232 · 2026-054A

PAYLOAD ACTIVE UNKNOWN

§ Identity

Operator
Country
US
Launch date
2026-03-17
Launch site
AFETR
Launch vehicle
Mass (kg)
RCS (m²)

Purposes: comms

External: N2YO · Heavens-Above · Gunter

§ Orbital elements

Epoch: 2026-09-19T20:36:31.139136Z

Period
93.85 min
Inclination
53.1571°
Eccentricity
0.0000377
Mean motion
15.34397765 rev/d
Perigee alt
462.5 km
Apogee alt
463.0 km
Semi-major
6,840.8 km
B*
4.8980e-4
RAAN
104.7157°
Arg perigee
111.1918°
Mean anomaly
248.9125°
Rev number
2,886

§ Raw data

STARLINK-370271 68232U 26054A   26262.85869374  .00016207  00000+0  48980-3 0  99932 68232  53.1571 104.7157 0000377 111.1918 248.9125 15.34397765 28864

JSON: /api/v1/satellites/68232 · /tle

For live sub-satellite position, see the globe view (requires WebGL).

§ Visibility from observer

Set your observer location to see the next 7 days of passes ≥ 10°. The values pass through the URL so the page stays shareable.

No JS? Fill the form by hand. The geolocation button needs JavaScript.